PRIVATE WETTERSTATION BILLIGHEIM-ALLFELD                       ZURCK
Wetterdaten: Donnerstag, 10.08.2017
Datum Zeit Temp. A. Temp. A. min Temp. A. max Feuchte A. Luftdruck Regen Wind Richtung Richtung Sonnenschein ET Solar Taupunkt Windchill Windben Empfang
10.08.2017 00:00 15,2 C 15,2 C 15,3 C 88 % 1016,6 hPa 0,0 l/m 0,0 km/h (0 Bft) N-NW 332 0 min 0,000 mm 0 W/m 13,2 C 15,2 C 0,0 km/h (0 Bft) 98 %
10.08.2017 00:10 15,1 C 15,1 C 15,2 C 88 % 1016,4 hPa 0,4 l/m 0,0 km/h (0 Bft) N-NW 332 0 min 0,000 mm 0 W/m 13,1 C 15,1 C 0,0 km/h (0 Bft) 98 %
10.08.2017 00:20 15,1 C 15,1 C 15,2 C 88 % 1016,5 hPa 0,2 l/m 0,0 km/h (0 Bft) N-NW 332 0 min 0,000 mm 0 W/m 13,1 C 15,1 C 1,6 km/h (1 Bft) 98 %
10.08.2017 00:30 15,1 C 15,1 C 15,1 C 88 % 1016,4 hPa 0,2 l/m 0,1 km/h (0 Bft) N-NW 334 0 min 0,000 mm 0 W/m 13,1 C 15,1 C 4,8 km/h (1 Bft) 97 %
10.08.2017 00:40 15,3 C 15,1 C 15,3 C 88 % 1016,5 hPa 0,0 l/m 1,1 km/h (1 Bft) N-NW 329 0 min 0,000 mm 0 W/m 13,3 C 15,3 C 8,0 km/h (2 Bft) 98 %
10.08.2017 00:50 15,3 C 15,3 C 15,3 C 88 % 1017,0 hPa 0,2 l/m 0,0 km/h (0 Bft) N-NW 329 0 min 0,000 mm 0 W/m 13,3 C 15,3 C 0,0 km/h (0 Bft) 97 %
10.08.2017 01:00 15,3 C 15,2 C 15,3 C 88 % 1016,7 hPa 1,0 l/m 0,1 km/h (0 Bft) N-NW 327 0 min 0,000 mm 0 W/m 13,3 C 15,3 C 1,6 km/h (1 Bft) 97 %
10.08.2017 01:10 15,2 C 15,2 C 15,3 C 88 % 1016,7 hPa 0,4 l/m 0,0 km/h (0 Bft) N-NW 333 0 min 0,000 mm 0 W/m 13,2 C 15,2 C 0,0 km/h (0 Bft) 98 %
10.08.2017 01:20 15,2 C 15,2 C 15,3 C 89 % 1017,0 hPa 0,8 l/m 0,0 km/h (0 Bft) N-NW 333 0 min 0,000 mm 0 W/m 13,4 C 15,2 C 0,0 km/h (0 Bft) 97 %
10.08.2017 01:30 15,1 C 15,1 C 15,2 C 89 % 1016,8 hPa 0,4 l/m 0,0 km/h (0 Bft) N-NW 333 0 min 0,000 mm 0 W/m 13,3 C 15,1 C 0,0 km/h (0 Bft) 98 %
10.08.2017 01:40 15,1 C 15,1 C 15,1 C 89 % 1016,6 hPa 0,4 l/m 0,0 km/h (0 Bft) N-NW 333 0 min 0,000 mm 0 W/m 13,3 C 15,1 C 0,0 km/h (0 Bft) 97 %
10.08.2017 01:50 15,1 C 15,1 C 15,1 C 89 % 1016,8 hPa 0,0 l/m 0,0 km/h (0 Bft) N-NW 333 0 min 0,000 mm 0 W/m 13,3 C 15,1 C 0,0 km/h (0 Bft) 98 %
10.08.2017 02:00 15,1 C 15,1 C 15,1 C 89 % 1016,7 hPa 0,0 l/m 0,0 km/h (0 Bft) N-NW 333 0 min 0,000 mm 0 W/m 13,3 C 15,1 C 0,0 km/h (0 Bft) 97 %
10.08.2017 02:10 15,1 C 15,1 C 15,1 C 89 % 1016,4 hPa 0,2 l/m 0,0 km/h (0 Bft) N-NW 333 0 min 0,000 mm 0 W/m 13,3 C 15,1 C 0,0 km/h (0 Bft) 97 %
10.08.2017 02:20 15,1 C 15,1 C 15,1 C 89 % 1016,5 hPa 0,0 l/m 0,0 km/h (0 Bft) N-NW 333 0 min 0,000 mm 0 W/m 13,3 C 15,1 C 0,0 km/h (0 Bft) 98 %
10.08.2017 02:30 15,1 C 15,1 C 15,1 C 89 % 1016,7 hPa 0,0 l/m 0,0 km/h (0 Bft) N-NW 333 0 min 0,000 mm 0 W/m 13,3 C 15,1 C 0,0 km/h (0 Bft) 97 %
10.08.2017 02:40 14,9 C 14,9 C 15,1 C 89 % 1016,5 hPa 0,0 l/m 0,0 km/h (0 Bft) N-NW 333 0 min 0,000 mm 0 W/m 13,1 C 14,9 C 0,0 km/h (0 Bft) 98 %
10.08.2017 02:50 14,9 C 14,8 C 14,9 C 89 % 1016,5 hPa 0,0 l/m 0,0 km/h (0 Bft) N-NW 333 0 min 0,000 mm 0 W/m 13,1 C 14,9 C 0,0 km/h (0 Bft) 97 %
10.08.2017 03:00 14,9 C 14,8 C 14,9 C 89 % 1016,7 hPa 0,0 l/m 0,0 km/h (0 Bft) N-NW 333 0 min 0,000 mm 0 W/m 13,1 C 14,9 C 0,0 km/h (0 Bft) 98 %
10.08.2017 03:10 14,9 C 14,9 C 14,9 C 89 % 1016,7 hPa 0,0 l/m 0,0 km/h (0 Bft) N-NW 333 0 min 0,000 mm 0 W/m 13,1 C 14,9 C 0,0 km/h (0 Bft) 98 %
10.08.2017 03:20 15,0 C 14,9 C 15,0 C 89 % 1016,6 hPa 0,0 l/m 0,0 km/h (0 Bft) N-NW 333 0 min 0,000 mm 0 W/m 13,2 C 15,0 C 0,0 km/h (0 Bft) 97 %
10.08.2017 03:30 14,9 C 14,9 C 15,0 C 89 % 1016,7 hPa 0,0 l/m 0,0 km/h (0 Bft) N-NW 333 0 min 0,000 mm 0 W/m 13,1 C 14,9 C 0,0 km/h (0 Bft) 98 %
10.08.2017 03:40 15,0 C 14,9 C 15,0 C 89 % 1016,9 hPa 0,0 l/m 0,0 km/h (0 Bft) N-NW 333 0 min 0,000 mm 0 W/m 13,2 C 15,0 C 0,0 km/h (0 Bft) 97 %
10.08.2017 03:50 15,1 C 15,0 C 15,1 C 91 % 1016,6 hPa 0,0 l/m 0,0 km/h (0 Bft) N-NW 333 0 min 0,000 mm 0 W/m 13,6 C 15,1 C 0,0 km/h (0 Bft) 97 %
10.08.2017 04:00 15,1 C 15,1 C 15,1 C 89 % 1016,6 hPa 0,0 l/m 0,0 km/h (0 Bft) N-NW 333 0 min 0,000 mm 0 W/m 13,3 C 15,1 C 0,0 km/h (0 Bft) 97 %
10.08.2017 04:10 15,1 C 15,1 C 15,1 C 89 % 1016,7 hPa 0,0 l/m 0,0 km/h (0 Bft) N-NW 333 0 min 0,000 mm 0 W/m 13,3 C 15,1 C 0,0 km/h (0 Bft) 98 %
10.08.2017 04:20 15,1 C 15,1 C 15,1 C 89 % 1017,0 hPa 0,0 l/m 0,0 km/h (0 Bft) N-NW 333 0 min 0,000 mm 0 W/m 13,3 C 15,1 C 0,0 km/h (0 Bft) 98 %
10.08.2017 04:30 15,1 C 15,1 C 15,1 C 89 % 1017,1 hPa 0,2 l/m 0,0 km/h (0 Bft) N-NW 333 0 min 0,000 mm 0 W/m 13,3 C 15,1 C 1,6 km/h (1 Bft) 97 %
10.08.2017 04:40 15,1 C 15,1 C 15,1 C 89 % 1017,0 hPa 0,0 l/m 0,0 km/h (0 Bft) N-NW 333 0 min 0,000 mm 0 W/m 13,3 C 15,1 C 0,0 km/h (0 Bft) 98 %
10.08.2017 04:50 15,1 C 15,1 C 15,1 C 89 % 1016,6 hPa 0,0 l/m 0,0 km/h (0 Bft) N-NW 333 0 min 0,000 mm 0 W/m 13,3 C 15,1 C 0,0 km/h (0 Bft) 97 %
10.08.2017 05:00 15,1 C 15,1 C 15,1 C 89 % 1016,5 hPa 0,0 l/m 0,0 km/h (0 Bft) N-NW 333 0 min 0,000 mm 0 W/m 13,3 C 15,1 C 0,0 km/h (0 Bft) 98 %
10.08.2017 05:10 15,1 C 15,1 C 15,1 C 89 % 1016,6 hPa 0,0 l/m 0,0 km/h (0 Bft) N-NW 333 0 min 0,000 mm 0 W/m 13,3 C 15,1 C 0,0 km/h (0 Bft) 98 %
10.08.2017 05:20 15,1 C 15,1 C 15,1 C 89 % 1016,8 hPa 0,0 l/m 0,0 km/h (0 Bft) N-NW 333 0 min 0,000 mm 0 W/m 13,3 C 15,1 C 0,0 km/h (0 Bft) 97 %
10.08.2017 05:30 15,1 C 15,0 C 15,1 C 89 % 1016,5 hPa 0,0 l/m 0,2 km/h (0 Bft) NW 322 0 min 0,000 mm 0 W/m 13,3 C 15,1 C 4,8 km/h (1 Bft) 98 %
10.08.2017 05:40 14,8 C 14,8 C 15,1 C 89 % 1016,2 hPa 0,2 l/m 0,7 km/h (0 Bft) NW 322 0 min 0,000 mm 0 W/m 13,0 C 14,8 C 4,8 km/h (1 Bft) 97 %
10.08.2017 05:50 14,8 C 14,8 C 14,9 C 89 % 1016,3 hPa 0,0 l/m 0,0 km/h (0 Bft) NW 322 0 min 0,000 mm 0 W/m 13,0 C 14,8 C 1,6 km/h (1 Bft) 98 %
10.08.2017 06:00 14,6 C 14,6 C 14,8 C 89 % 1016,6 hPa 0,0 l/m 0,0 km/h (0 Bft) NW 322 0 min 0,000 mm 0 W/m 12,8 C 14,6 C 0,0 km/h (0 Bft) 98 %
10.08.2017 06:10 14,5 C 14,5 C 14,6 C 89 % 1016,5 hPa 0,0 l/m 0,0 km/h (0 Bft) NW 322 0 min 0,000 mm 0 W/m 12,7 C 14,5 C 0,0 km/h (0 Bft) 97 %
10.08.2017 06:20 14,4 C 14,4 C 14,5 C 89 % 1016,4 hPa 0,0 l/m 0,0 km/h (0 Bft) NW 322 0 min 0,000 mm 0 W/m 12,6 C 14,4 C 0,0 km/h (0 Bft) 98 %
10.08.2017 06:30 14,4 C 14,4 C 14,4 C 89 % 1016,4 hPa 0,0 l/m 0,0 km/h (0 Bft) NW 322 0 min 0,000 mm 0 W/m 12,6 C 14,4 C 0,0 km/h (0 Bft) 97 %
10.08.2017 06:40 14,4 C 14,4 C 14,4 C 89 % 1016,7 hPa 0,0 l/m 0,0 km/h (0 Bft) NW 322 0 min 0,000 mm 0 W/m 12,6 C 14,4 C 0,0 km/h (0 Bft) 98 %
10.08.2017 06:50 14,4 C 14,4 C 14,4 C 89 % 1016,7 hPa 0,0 l/m 0,0 km/h (0 Bft) NW 322 0 min 0,000 mm 7 W/m 12,6 C 14,4 C 0,0 km/h (0 Bft) 97 %
10.08.2017 07:00 14,4 C 14,4 C 14,4 C 89 % 1016,8 hPa 0,0 l/m 0,0 km/h (0 Bft) NW 322 0 min 0,000 mm 11 W/m 12,6 C 14,4 C 0,0 km/h (0 Bft) 98 %
10.08.2017 07:10 14,5 C 14,4 C 14,5 C 89 % 1016,7 hPa 0,0 l/m 0,0 km/h (0 Bft) NW 322 0 min 0,000 mm 16 W/m 12,7 C 14,5 C 0,0 km/h (0 Bft) 97 %
10.08.2017 07:20 14,6 C 14,5 C 14,6 C 89 % 1016,6 hPa 0,0 l/m 0,1 km/h (0 Bft) NW 322 0 min 0,000 mm 23 W/m 12,8 C 14,6 C 3,2 km/h (1 Bft) 98 %
10.08.2017 07:30 14,7 C 14,6 C 14,7 C 89 % 1016,6 hPa 0,0 l/m 1,8 km/h (1 Bft) NW 322 0 min 0,000 mm 28 W/m 12,9 C 14,7 C 6,4 km/h (2 Bft) 97 %
10.08.2017 07:40 14,7 C 14,7 C 14,7 C 89 % 1016,8 hPa 0,0 l/m 0,0 km/h (0 Bft) NW 322 0 min 0,000 mm 28 W/m 12,9 C 14,7 C 1,6 km/h (1 Bft) 97 %
10.08.2017 07:50 14,7 C 14,7 C 14,8 C 89 % 1017,0 hPa 0,0 l/m 0,7 km/h (0 Bft) NW 318 0 min 0,000 mm 21 W/m 12,9 C 14,7 C 6,4 km/h (2 Bft) 97 %
10.08.2017 08:00 14,7 C 14,7 C 14,7 C 89 % 1016,9 hPa 0,0 l/m 0,4 km/h (0 Bft) NW 318 0 min 0,025 mm 44 W/m 12,9 C 14,7 C 6,4 km/h (2 Bft) 89 %
10.08.2017 08:10 14,7 C 14,7 C 14,7 C 89 % 1017,0 hPa 0,0 l/m 0,2 km/h (0 Bft) NW 318 0 min 0,000 mm 33 W/m 12,9 C 14,7 C 4,8 km/h (1 Bft) 98 %
10.08.2017 08:20 14,7 C 14,7 C 14,8 C 89 % 1017,1 hPa 0,0 l/m 1,6 km/h (1 Bft) N-NW 340 0 min 0,000 mm 23 W/m 12,9 C 14,7 C 9,7 km/h (2 Bft) 97 %
10.08.2017 08:30 14,8 C 14,7 C 14,8 C 89 % 1017,1 hPa 0,0 l/m 2,2 km/h (1 Bft) NW 318 0 min 0,000 mm 25 W/m 13,0 C 14,8 C 8,0 km/h (2 Bft) 97 %
10.08.2017 08:40 14,7 C 14,7 C 14,8 C 89 % 1016,9 hPa 0,0 l/m 1,4 km/h (1 Bft) N-NW 333 0 min 0,000 mm 39 W/m 12,9 C 14,7 C 6,4 km/h (2 Bft) 97 %
10.08.2017 08:50 14,7 C 14,7 C 14,7 C 89 % 1016,9 hPa 0,0 l/m 1,1 km/h (1 Bft) NW 325 0 min 0,000 mm 42 W/m 12,9 C 14,7 C 6,4 km/h (2 Bft) 97 %
10.08.2017 09:00 14,7 C 14,7 C 14,8 C 89 % 1017,1 hPa 0,0 l/m 2,6 km/h (1 Bft) NW 311 0 min 0,026 mm 40 W/m 12,9 C 14,7 C 9,7 km/h (2 Bft) 97 %
10.08.2017 09:10 14,8 C 14,7 C 14,8 C 89 % 1017,3 hPa 0,0 l/m 0,7 km/h (0 Bft) NW 317 0 min 0,000 mm 33 W/m 13,0 C 14,8 C 8,0 km/h (2 Bft) 97 %
10.08.2017 09:20 14,7 C 14,7 C 14,8 C 89 % 1017,1 hPa 0,0 l/m 4,5 km/h (1 Bft) NW 319 0 min 0,000 mm 33 W/m 12,9 C 14,7 C 9,7 km/h (2 Bft) 98 %
10.08.2017 09:30 14,7 C 14,7 C 14,7 C 89 % 1017,1 hPa 0,2 l/m 2,5 km/h (1 Bft) W-NW 294 0 min 0,000 mm 40 W/m 12,9 C 14,7 C 9,7 km/h (2 Bft) 97 %
10.08.2017 09:40 14,6 C 14,6 C 14,7 C 89 % 1017,0 hPa 0,2 l/m 5,2 km/h (1 Bft) NW 307 0 min 0,000 mm 46 W/m 12,8 C 14,6 C 11,3 km/h (2 Bft) 97 %
10.08.2017 09:50 14,4 C 14,4 C 14,6 C 89 % 1017,2 hPa 0,0 l/m 3,4 km/h (1 Bft) W-NW 302 0 min 0,000 mm 19 W/m 12,6 C 14,4 C 11,3 km/h (2 Bft) 97 %
10.08.2017 10:00 14,4 C 14,4 C 14,4 C 89 % 1017,2 hPa 0,0 l/m 5,3 km/h (1 Bft) NW 311 0 min 0,025 mm 25 W/m 12,6 C 14,4 C 9,7 km/h (2 Bft) 97 %
10.08.2017 10:10 14,4 C 14,4 C 14,4 C 89 % 1017,3 hPa 0,2 l/m 6,0 km/h (2 Bft) NW 308 0 min 0,000 mm 33 W/m 12,6 C 14,4 C 14,5 km/h (3 Bft) 98 %
10.08.2017 10:20 14,4 C 14,3 C 14,4 C 89 % 1017,4 hPa 0,0 l/m 4,0 km/h (1 Bft) NW 304 0 min 0,000 mm 46 W/m 12,6 C 14,4 C 9,7 km/h (2 Bft) 97 %
10.08.2017 10:30 14,4 C 14,3 C 14,4 C 89 % 1017,3 hPa 0,0 l/m 5,4 km/h (1 Bft) NW 308 0 min 0,000 mm 63 W/m 12,6 C 14,4 C 12,9 km/h (3 Bft) 97 %
10.08.2017 10:40 14,5 C 14,4 C 14,5 C 89 % 1017,3 hPa 0,4 l/m 5,3 km/h (1 Bft) NW 315 0 min 0,000 mm 51 W/m 12,7 C 14,5 C 14,5 km/h (3 Bft) 98 %
10.08.2017 10:50 14,4 C 14,4 C 14,5 C 89 % 1017,3 hPa 0,0 l/m 8,1 km/h (2 Bft) NW 313 0 min 0,000 mm 67 W/m 12,6 C 13,4 C 19,3 km/h (3 Bft) 97 %
10.08.2017 11:00 14,4 C 14,4 C 14,4 C 89 % 1017,3 hPa 0,0 l/m 7,1 km/h (2 Bft) NW 316 0 min 0,026 mm 44 W/m 12,6 C 14,0 C 16,1 km/h (3 Bft) 97 %
10.08.2017 11:10 14,3 C 14,3 C 14,4 C 89 % 1017,3 hPa 0,0 l/m 8,7 km/h (2 Bft) W-NW 303 0 min 0,000 mm 60 W/m 12,5 C 13,0 C 17,7 km/h (3 Bft) 97 %
10.08.2017 11:20 14,3 C 14,3 C 14,3 C 89 % 1017,2 hPa 0,0 l/m 8,2 km/h (2 Bft) NW 319 0 min 0,000 mm 95 W/m 12,5 C 13,3 C 20,9 km/h (4 Bft) 98 %
10.08.2017 11:30 14,3 C 14,3 C 14,3 C 89 % 1017,3 hPa 0,0 l/m 5,4 km/h (1 Bft) NW 323 0 min 0,000 mm 60 W/m 12,5 C 14,3 C 14,5 km/h (3 Bft) 97 %
10.08.2017 11:40 14,3 C 14,3 C 14,3 C 89 % 1017,3 hPa 0,2 l/m 6,0 km/h (2 Bft) NW 321 0 min 0,000 mm 37 W/m 12,5 C 14,3 C 16,1 km/h (3 Bft) 98 %
10.08.2017 11:50 14,2 C 14,2 C 14,3 C 89 % 1017,3 hPa 0,2 l/m 5,3 km/h (1 Bft) NW 317 0 min 0,000 mm 35 W/m 12,4 C 14,2 C 11,3 km/h (2 Bft) 97 %
10.08.2017 12:00 14,1 C 14,1 C 14,2 C 89 % 1017,2 hPa 0,0 l/m 6,7 km/h (2 Bft) NW 312 0 min 0,025 mm 28 W/m 12,3 C 13,9 C 11,3 km/h (2 Bft) 97 %
10.08.2017 12:10 13,9 C 13,9 C 14,1 C 89 % 1017,2 hPa 0,0 l/m 4,2 km/h (1 Bft) N-NW 342 0 min 0,000 mm 40 W/m 12,1 C 13,9 C 14,5 km/h (3 Bft) 98 %
10.08.2017 12:20 13,9 C 13,9 C 13,9 C 89 % 1017,1 hPa 0,2 l/m 2,4 km/h (1 Bft) NW 325 0 min 0,000 mm 46 W/m 12,1 C 13,9 C 8,0 km/h (2 Bft) 97 %
10.08.2017 12:30 13,9 C 13,9 C 13,9 C 90 % 1017,1 hPa 0,2 l/m 3,7 km/h (1 Bft) NW 321 0 min 0,000 mm 40 W/m 12,3 C 13,9 C 8,0 km/h (2 Bft) 98 %
10.08.2017 12:40 13,9 C 13,9 C 13,9 C 89 % 1017,3 hPa 0,0 l/m 4,5 km/h (1 Bft) NW 317 0 min 0,000 mm 32 W/m 12,1 C 13,9 C 11,3 km/h (2 Bft) 97 %
10.08.2017 12:50 13,8 C 13,8 C 13,9 C 89 % 1017,3 hPa 0,2 l/m 0,8 km/h (0 Bft) NW 313 0 min 0,000 mm 26 W/m 12,0 C 13,8 C 8,0 km/h (2 Bft) 97 %
10.08.2017 13:00 13,8 C 13,8 C 13,9 C 89 % 1017,4 hPa 0,4 l/m 0,0 km/h (0 Bft) NW 313 0 min 0,025 mm 18 W/m 12,0 C 13,8 C 1,6 km/h (1 Bft) 98 %
10.08.2017 13:10 13,8 C 13,8 C 13,8 C 89 % 1017,5 hPa 0,2 l/m 0,9 km/h (0 Bft) W-NW 298 0 min 0,000 mm 19 W/m 12,0 C 13,8 C 9,7 km/h (2 Bft) 97 %
10.08.2017 13:20 13,8 C 13,8 C 13,8 C 89 % 1017,4 hPa 0,8 l/m 2,0 km/h (1 Bft) NW 305 0 min 0,000 mm 30 W/m 12,0 C 13,8 C 9,7 km/h (2 Bft) 97 %
10.08.2017 13:30 13,7 C 13,7 C 13,8 C 89 % 1017,5 hPa 0,6 l/m 4,2 km/h (1 Bft) W-NW 286 0 min 0,000 mm 28 W/m 11,9 C 13,7 C 8,0 km/h (2 Bft) 98 %
10.08.2017 13:40 13,7 C 13,7 C 13,7 C 89 % 1017,5 hPa 0,2 l/m 1,2 km/h (1 Bft) W-NW 290 0 min 0,000 mm 28 W/m 11,9 C 13,7 C 6,4 km/h (2 Bft) 97 %
10.08.2017 13:50 13,8 C 13,7 C 13,8 C 89 % 1017,2 hPa 0,4 l/m 0,0 km/h (0 Bft) W-NW 290 0 min 0,000 mm 69 W/m 12,0 C 13,8 C 1,6 km/h (1 Bft) 97 %
10.08.2017 14:00 13,9 C 13,8 C 13,9 C 89 % 1017,2 hPa 0,4 l/m 0,6 km/h (0 Bft) W-NW 289 0 min 0,026 mm 40 W/m 12,1 C 13,9 C 8,0 km/h (2 Bft) 97 %
10.08.2017 14:10 13,9 C 13,8 C 13,9 C 89 % 1017,2 hPa 0,2 l/m 2,0 km/h (1 Bft) W-NW 286 0 min 0,000 mm 35 W/m 12,1 C 13,9 C 6,4 km/h (2 Bft) 98 %
10.08.2017 14:20 13,9 C 13,9 C 13,9 C 89 % 1017,3 hPa 0,2 l/m 5,0 km/h (1 Bft) W 278 0 min 0,000 mm 32 W/m 12,1 C 13,9 C 14,5 km/h (3 Bft) 97 %
10.08.2017 14:30 13,8 C 13,8 C 13,9 C 89 % 1017,4 hPa 0,2 l/m 4,3 km/h (1 Bft) W 274 0 min 0,000 mm 35 W/m 12,0 C 13,8 C 16,1 km/h (3 Bft) 97 %
10.08.2017 14:40 13,8 C 13,8 C 13,8 C 89 % 1017,5 hPa 0,2 l/m 5,4 km/h (1 Bft) W 265 0 min 0,000 mm 33 W/m 12,0 C 13,8 C 17,7 km/h (3 Bft) 97 %
10.08.2017 14:50 13,8 C 13,8 C 13,8 C 89 % 1017,5 hPa 0,4 l/m 3,6 km/h (1 Bft) W-NW 293 0 min 0,000 mm 33 W/m 12,0 C 13,8 C 12,9 km/h (3 Bft) 98 %
10.08.2017 15:00 13,8 C 13,8 C 13,9 C 89 % 1017,5 hPa 0,0 l/m 4,3 km/h (1 Bft) W-NW 282 0 min 0,025 mm 42 W/m 12,0 C 13,8 C 11,3 km/h (2 Bft) 98 %
10.08.2017 15:10 13,8 C 13,8 C 13,8 C 89 % 1017,5 hPa 0,2 l/m 4,6 km/h (1 Bft) W 272 0 min 0,000 mm 47 W/m 12,0 C 13,8 C 11,3 km/h (2 Bft) 97 %
10.08.2017 15:20 13,8 C 13,8 C 13,8 C 89 % 1017,6 hPa 0,2 l/m 4,4 km/h (1 Bft) NW 305 0 min 0,000 mm 37 W/m 12,0 C 13,8 C 14,5 km/h (3 Bft) 98 %
10.08.2017 15:30 13,8 C 13,8 C 13,8 C 89 % 1017,5 hPa 0,0 l/m 6,2 km/h (2 Bft) W-NW 300 0 min 0,000 mm 32 W/m 12,0 C 13,8 C 12,9 km/h (3 Bft) 97 %
10.08.2017 15:40 13,7 C 13,7 C 13,8 C 89 % 1017,4 hPa 0,0 l/m 6,8 km/h (2 Bft) W 275 0 min 0,000 mm 42 W/m 11,9 C 13,5 C 20,9 km/h (4 Bft) 98 %
10.08.2017 15:50 13,6 C 13,6 C 13,7 C 90 % 1017,5 hPa 0,2 l/m 6,6 km/h (2 Bft) W-NW 282 0 min 0,000 mm 30 W/m 12,0 C 13,5 C 20,9 km/h (4 Bft) 96 %
10.08.2017 16:00 13,6 C 13,6 C 13,7 C 90 % 1017,6 hPa 0,0 l/m 4,4 km/h (1 Bft) W 261 0 min 0,026 mm 33 W/m 12,0 C 13,6 C 16,1 km/h (3 Bft) 98 %
10.08.2017 16:10 13,6 C 13,6 C 13,6 C 89 % 1017,5 hPa 0,2 l/m 6,0 km/h (2 Bft) W 269 0 min 0,000 mm 40 W/m 11,8 C 13,6 C 17,7 km/h (3 Bft) 97 %
10.08.2017 16:20 13,4 C 13,4 C 13,6 C 89 % 1017,5 hPa 0,0 l/m 7,9 km/h (2 Bft) W 269 0 min 0,000 mm 37 W/m 11,6 C 12,5 C 17,7 km/h (3 Bft) 97 %
10.08.2017 16:30 13,3 C 13,3 C 13,4 C 89 % 1017,2 hPa 0,2 l/m 6,8 km/h (2 Bft) W-NW 290 0 min 0,000 mm 35 W/m 11,5 C 13,1 C 17,7 km/h (3 Bft) 98 %
10.08.2017 16:40 13,2 C 13,2 C 13,3 C 90 % 1017,1 hPa 0,2 l/m 5,0 km/h (1 Bft) W 273 0 min 0,000 mm 72 W/m 11,6 C 13,2 C 16,1 km/h (3 Bft) 97 %
10.08.2017 16:50 13,3 C 13,2 C 13,3 C 90 % 1017,1 hPa 0,2 l/m 5,5 km/h (1 Bft) W-NW 285 0 min 0,000 mm 42 W/m 11,7 C 13,3 C 17,7 km/h (3 Bft) 98 %
10.08.2017 17:00 13,3 C 13,2 C 13,3 C 90 % 1017,1 hPa 0,0 l/m 4,2 km/h (1 Bft) W-NW 289 0 min 0,025 mm 42 W/m 11,7 C 13,3 C 19,3 km/h (3 Bft) 97 %
10.08.2017 17:10 13,2 C 13,2 C 13,3 C 89 % 1017,0 hPa 0,2 l/m 4,4 km/h (1 Bft) W-NW 289 0 min 0,000 mm 49 W/m 11,4 C 13,2 C 17,7 km/h (3 Bft) 97 %
10.08.2017 17:20 13,1 C 13,1 C 13,2 C 89 % 1017,1 hPa 0,0 l/m 5,1 km/h (1 Bft) W 275 0 min 0,000 mm 47 W/m 11,3 C 13,1 C 14,5 km/h (3 Bft) 98 %
10.08.2017 17:30 13,2 C 13,1 C 13,2 C 90 % 1017,0 hPa 0,0 l/m 3,4 km/h (1 Bft) W-NW 297 0 min 0,000 mm 67 W/m 11,6 C 13,2 C 16,1 km/h (3 Bft) 97 %
10.08.2017 17:40 13,3 C 13,2 C 13,3 C 90 % 1017,0 hPa 0,0 l/m 3,1 km/h (1 Bft) W 267 0 min 0,000 mm 98 W/m 11,7 C 13,3 C 11,3 km/h (2 Bft) 97 %
10.08.2017 17:50 13,4 C 13,3 C 13,4 C 89 % 1017,4 hPa 0,0 l/m 1,1 km/h (1 Bft) W 264 0 min 0,000 mm 53 W/m 11,6 C 13,4 C 11,3 km/h (2 Bft) 97 %
10.08.2017 18:00 13,4 C 13,4 C 13,4 C 89 % 1017,2 hPa 0,0 l/m 1,5 km/h (1 Bft) W 276 0 min 0,025 mm 65 W/m 11,6 C 13,4 C 9,7 km/h (2 Bft) 98 %
10.08.2017 18:10 13,5 C 13,4 C 13,5 C 89 % 1017,1 hPa 0,0 l/m 1,2 km/h (1 Bft) W-NW 297 0 min 0,000 mm 67 W/m 11,7 C 13,5 C 8,0 km/h (2 Bft) 98 %
10.08.2017 18:20 13,6 C 13,5 C 13,6 C 90 % 1017,0 hPa 0,0 l/m 0,6 km/h (0 Bft) W-NW 295 0 min 0,000 mm 63 W/m 12,0 C 13,6 C 6,4 km/h (2 Bft) 97 %
10.08.2017 18:30 13,7 C 13,6 C 13,7 C 89 % 1017,0 hPa 0,0 l/m 1,1 km/h (1 Bft) W 265 0 min 0,000 mm 40 W/m 11,9 C 13,7 C 8,0 km/h (2 Bft) 99 %
10.08.2017 18:40 13,8 C 13,7 C 13,8 C 89 % 1017,1 hPa 0,0 l/m 0,4 km/h (0 Bft) W-NW 282 0 min 0,000 mm 49 W/m 12,0 C 13,8 C 4,8 km/h (1 Bft) 98 %
10.08.2017 18:50 13,9 C 13,8 C 13,9 C 89 % 1017,3 hPa 0,0 l/m 2,6 km/h (1 Bft) W-NW 295 0 min 0,000 mm 32 W/m 12,1 C 13,9 C 9,7 km/h (2 Bft) 99 %
10.08.2017 19:00 13,9 C 13,9 C 13,9 C 89 % 1017,5 hPa 0,0 l/m 0,2 km/h (0 Bft) W-SW 252 0 min 0,026 mm 25 W/m 12,1 C 13,9 C 8,0 km/h (2 Bft) 100 %
10.08.2017 19:10 13,9 C 13,9 C 13,9 C 89 % 1017,6 hPa 0,0 l/m 1,2 km/h (1 Bft) W 265 0 min 0,000 mm 14 W/m 12,1 C 13,9 C 8,0 km/h (2 Bft) 100 %
10.08.2017 19:20 14,0 C 13,9 C 14,0 C 89 % 1017,6 hPa 0,0 l/m 1,1 km/h (1 Bft) W 262 0 min 0,000 mm 21 W/m 12,2 C 14,0 C 8,0 km/h (2 Bft) 100 %
10.08.2017 19:30 14,0 C 13,9 C 14,0 C 89 % 1017,2 hPa 0,0 l/m 0,4 km/h (0 Bft) W-NW 290 0 min 0,000 mm 33 W/m 12,2 C 14,0 C 6,4 km/h (2 Bft) 100 %
10.08.2017 19:40 14,0 C 14,0 C 14,0 C 89 % 1017,6 hPa 0,0 l/m 2,6 km/h (1 Bft) W-SW 257 0 min 0,000 mm 32 W/m 12,2 C 14,0 C 8,0 km/h (2 Bft) 91 %
10.08.2017 19:50 14,1 C 14,0 C 14,1 C 89 % 1017,9 hPa 0,0 l/m 1,7 km/h (1 Bft) W-SW 256 0 min 0,000 mm 25 W/m 12,3 C 14,1 C 9,7 km/h (2 Bft) 100 %
10.08.2017 20:00 14,1 C 14,1 C 14,1 C 89 % 1018,0 hPa 0,0 l/m 2,1 km/h (1 Bft) W-SW 241 0 min 0,025 mm 0 W/m 12,3 C 14,1 C 6,4 km/h (2 Bft) 100 %
10.08.2017 20:10 14,0 C 14,0 C 14,1 C 89 % 1017,9 hPa 0,0 l/m 2,1 km/h (1 Bft) SW 225 0 min 0,000 mm 0 W/m 12,2 C 14,0 C 9,7 km/h (2 Bft) 100 %
10.08.2017 20:20 13,9 C 13,9 C 14,1 C 89 % 1017,6 hPa 0,0 l/m 5,3 km/h (1 Bft) W 261 0 min 0,000 mm 0 W/m 12,1 C 13,9 C 14,5 km/h (3 Bft) 100 %
10.08.2017 20:30 13,8 C 13,8 C 13,9 C 89 % 1017,7 hPa 0,0 l/m 3,3 km/h (1 Bft) W-SW 240 0 min 0,000 mm 0 W/m 12,0 C 13,8 C 12,9 km/h (3 Bft) 100 %
10.08.2017 20:40 13,6 C 13,6 C 13,8 C 89 % 1017,8 hPa 0,0 l/m 3,1 km/h (1 Bft) W-SW 253 0 min 0,000 mm 0 W/m 11,8 C 13,6 C 9,7 km/h (2 Bft) 100 %
10.08.2017 20:50 13,5 C 13,5 C 13,6 C 89 % 1017,6 hPa 0,0 l/m 3,1 km/h (1 Bft) W 260 0 min 0,000 mm 0 W/m 11,7 C 13,5 C 16,1 km/h (3 Bft) 100 %
10.08.2017 21:00 13,4 C 13,4 C 13,5 C 89 % 1017,5 hPa 0,0 l/m 4,6 km/h (1 Bft) W-SW 250 0 min 0,000 mm 0 W/m 11,6 C 13,4 C 16,1 km/h (3 Bft) 100 %
10.08.2017 21:10 13,3 C 13,3 C 13,4 C 89 % 1017,5 hPa 0,0 l/m 2,7 km/h (1 Bft) W-SW 252 0 min 0,000 mm 0 W/m 11,5 C 13,3 C 11,3 km/h (2 Bft) 100 %
10.08.2017 21:20 13,3 C 13,3 C 13,3 C 89 % 1017,5 hPa 0,0 l/m 4,0 km/h (1 Bft) SW 222 0 min 0,000 mm 0 W/m 11,5 C 13,3 C 12,9 km/h (3 Bft) 100 %
10.08.2017 21:30 13,2 C 13,2 C 13,3 C 89 % 1017,6 hPa 0,0 l/m 5,4 km/h (1 Bft) S-SW 198 0 min 0,000 mm 0 W/m 11,4 C 13,2 C 14,5 km/h (3 Bft) 100 %
10.08.2017 21:40 13,2 C 13,2 C 13,2 C 89 % 1017,6 hPa 0,0 l/m 3,9 km/h (1 Bft) W 261 0 min 0,000 mm 0 W/m 11,4 C 13,2 C 14,5 km/h (3 Bft) 100 %
10.08.2017 21:50 13,1 C 13,1 C 13,2 C 89 % 1017,6 hPa 0,0 l/m 5,0 km/h (1 Bft) W-SW 238 0 min 0,000 mm 0 W/m 11,3 C 13,1 C 14,5 km/h (3 Bft) 99 %
10.08.2017 22:00 13,1 C 13,1 C 13,1 C 89 % 1017,6 hPa 0,0 l/m 3,7 km/h (1 Bft) SW 229 0 min 0,000 mm 0 W/m 11,3 C 13,1 C 16,1 km/h (3 Bft) 100 %
10.08.2017 22:10 13,0 C 13,0 C 13,1 C 89 % 1017,5 hPa 0,0 l/m 1,6 km/h (1 Bft) W 273 0 min 0,000 mm 0 W/m 11,2 C 13,0 C 12,9 km/h (3 Bft) 100 %
10.08.2017 22:20 13,0 C 12,9 C 13,0 C 89 % 1017,5 hPa 0,0 l/m 3,7 km/h (1 Bft) W 262 0 min 0,000 mm 0 W/m 11,2 C 13,0 C 14,5 km/h (3 Bft) 100 %
10.08.2017 22:30 12,9 C 12,9 C 13,0 C 89 % 1017,5 hPa 0,0 l/m 3,0 km/h (1 Bft) W-SW 252 0 min 0,000 mm 0 W/m 11,1 C 12,9 C 14,5 km/h (3 Bft) 100 %
10.08.2017 22:40 12,9 C 12,9 C 13,0 C 89 % 1017,3 hPa 0,0 l/m 1,7 km/h (1 Bft) W-SW 241 0 min 0,000 mm 0 W/m 11,1 C 12,9 C 9,7 km/h (2 Bft) 99 %
10.08.2017 22:50 12,9 C 12,9 C 12,9 C 89 % 1017,4 hPa 0,0 l/m 0,7 km/h (0 Bft) W-SW 247 0 min 0,000 mm 0 W/m 11,1 C 12,9 C 8,0 km/h (2 Bft) 100 %
10.08.2017 23:00 12,9 C 12,9 C 12,9 C 89 % 1017,5 hPa 0,0 l/m 3,8 km/h (1 Bft) W-SW 252 0 min 0,000 mm 0 W/m 11,1 C 12,9 C 14,5 km/h (3 Bft) 100 %
10.08.2017 23:10 12,9 C 12,9 C 12,9 C 89 % 1017,4 hPa 0,0 l/m 2,1 km/h (1 Bft) SW 226 0 min 0,000 mm 0 W/m 11,1 C 12,9 C 14,5 km/h (3 Bft) 100 %
10.08.2017 23:20 12,9 C 12,9 C 12,9 C 90 % 1017,4 hPa 0,0 l/m 3,6 km/h (1 Bft) W-NW 282 0 min 0,000 mm 0 W/m 11,3 C 12,9 C 12,9 km/h (3 Bft) 100 %
10.08.2017 23:30 12,9 C 12,9 C 12,9 C 90 % 1017,4 hPa 0,0 l/m 2,4 km/h (1 Bft) W 278 0 min 0,000 mm 0 W/m 11,3 C 12,9 C 9,7 km/h (2 Bft) 100 %
10.08.2017 23:40 12,9 C 12,9 C 12,9 C 90 % 1017,3 hPa 0,0 l/m 1,3 km/h (1 Bft) W 271 0 min 0,000 mm 0 W/m 11,3 C 12,9 C 9,7 km/h (2 Bft) 100 %
10.08.2017 23:50 12,9 C 12,9 C 12,9 C 90 % 1017,5 hPa 0,0 l/m 0,9 km/h (0 Bft) W 269 0 min 0,000 mm 0 W/m 11,3 C 12,9 C 6,4 km/h (2 Bft) 100 %
_ Min-Zeit 22:20 22:20 22:50 00:00 05:40 - 00:00 - - - - - 22:30 16:20 00:00 08:00
Minimum _ 12,9 C 12,9 C 12,9 C 88 % 1016,2 hPa - 0,0 km/h (0 Bft) - - - - - 11,1 C 12,5 C 0,0 km/h (0 Bft) 89 %
_ Max-Zeit 00:00 00:50 00:00 03:50 20:00 01:00 11:10 - - 00:00 09:00 17:40 03:50 00:40 11:20 19:00
Maximum _ 15,3 C 15,3 C 15,3 C 91 % 1018,0 hPa 1,0 l/m 8,7 km/h
W-NW (2 Bft)
- - 0 min 0,026 mm 98 W/m 13,6 C 15,3 C 20,9 km/h
NW (4 Bft)
100 %
Durchschnitt _ 14,2 C 14,1 C 14,2 C 89 % 1017,1 hPa #12,4 l/m 2,3 km/h (1 Bft) W - #0 min. #0,330 mm 39 W/m 12,4 C 14,1 C 8,2 km/h (2 Bft) 98 %
PRIVATE WETTERSTATION BILLIGHEIM-ALLFELD - www.neckar-odenwald-wetter.de - Holger Sonntag